This is the latest recevied weather packets stored in our database for station/object KE0TNI-13. If no packets are shown the sender has not sent any weather packets the latest 10 day(s).
| Time | Temp. | Humidity | Pressure | Rain* | Wind** | Luminosity | Snow |
|---|---|---|---|---|---|---|---|
| 1777511685 | 0.56° C | 94% | 1021.9 hPa | 0 mm | - | 2 W/m² | - |
| 1777511382 | 0.56° C | 95% | 1021.8 hPa | 0 mm | - | 2 W/m² | - |
| 1777511078 | 0.56° C | 95% | 1021.7 hPa | 0 mm | - | 2 W/m² | - |
| 1777510774 | 0.56° C | 95% | 1021.7 hPa | 0 mm | - | 2 W/m² | - |
| 1777510472 | 0.56° C | 95% | 1021.7 hPa | 0 mm | - | 5 W/m² | - |
| 1777510167 | 0.56° C | 95% | 1021.4 hPa | 0 mm | - | 6 W/m² | - |
| 1777509864 | 0.56° C | 95% | 1021.5 hPa | 0 mm | - | 4 W/m² | - |
| 1777509564 | 0.56° C | 95% | 1021.7 hPa | 0 mm | - | 5 W/m² | - |
| 1777509262 | 0° C | 94% | 1021.4 hPa | 0 mm | - | 6 W/m² | - |
| 1777508959 | 0.56° C | 94% | 1021.4 hPa | 0 mm | - | 6 W/m² | - |
| 1777508656 | 0° C | 94% | 1021.7 hPa | 0 mm | - | 6 W/m² | - |
| 1777508353 | 0° C | 94% | 1021.8 hPa | 0 mm | - | 3 W/m² | - |
| 1777508050 | 0° C | 94% | 1021.3 hPa | 0 mm | - | 2 W/m² | - |
| 1777507747 | 0° C | 94% | 1021.4 hPa | 0 mm | - | 3 W/m² | - |
| 1777507444 | 0.56° C | 93% | 1021.5 hPa | 0 mm | - | 5 W/m² | - |
| 1777507141 | 0.56° C | 93% | 1021.5 hPa | 0 mm | - | 5 W/m² | - |
| 1777506839 | 0.56° C | 93% | 1021.5 hPa | 0 mm | - | 6 W/m² | - |
| 1777506535 | 0.56° C | 93% | 1021.1 hPa | 0 mm | - | 19 W/m² | - |
| 1777506230 | 0.56° C | 93% | 1021.1 hPa | 0 mm | - | 14 W/m² | - |
| 1777505928 | 0.56° C | 93% | 1021 hPa | 0 mm | - | 15 W/m² | - |
| 1777505623 | 0.56° C | 93% | 1021.1 hPa | 0 mm | - | 20 W/m² | - |
| 1777505320 | 0.56° C | 93% | 1020.9 hPa | 0 mm | - | 27 W/m² | - |
| 1777505017 | 0.56° C | 93% | 1021.1 hPa | 0 mm | - | 24 W/m² | - |
| 1777504714 | 0.56° C | 94% | 1020.7 hPa | 0 mm | - | 27 W/m² | - |
| 1777504412 | 0.56° C | 93% | 1021 hPa | 0 mm | - | 23 W/m² | - |
* Rain latest hour (hover to see other rain measurements)
** Current wind speed in m/s (hover to see current wind gust speed)